TimeCST,TemperatureF,Dew PointF,Humidity,Sea Level PressureIn,VisibilityMPH,Wind Direction,Wind SpeedMPH,Gust SpeedMPH,PrecipitationIn,Events,Conditions,WindDirDegrees,DateUTC
12:13 AM,6.8,5.0,92,29.85,10.0,Calm,Calm,-,N/A,,Overcast,0,2013-12-21 06:13:00
12:32 AM,8.6,5.0,85,29.83,10.0,Calm,Calm,-,N/A,Snow,Light Snow,0,2013-12-21 06:32:00
12:53 AM,8.6,6.8,92,29.83,10.0,WSW,3.5,-,N/A,Snow,Light Snow,240,2013-12-21 06:53:00
1:12 AM,6.8,3.2,85,29.83,10.0,WNW,5.8,-,N/A,,Unknown,290,2013-12-21 07:12:00
1:32 AM,5.0,3.2,92,29.83,10.0,West,4.6,-,N/A,,Clear,270,2013-12-21 07:32:00
1:53 AM,3.2,1.4,92,29.83,10.0,Calm,Calm,-,N/A,,Clear,0,2013-12-21 07:53:00
2:12 AM,3.2,1.4,92,29.83,10.0,WNW,5.8,-,N/A,,Unknown,290,2013-12-21 08:12:00
2:33 AM,3.2,1.4,92,29.83,10.0,NW,3.5,-,N/A,Snow,Light Snow,310,2013-12-21 08:33:00
2:53 AM,3.2,1.4,92,29.83,10.0,Calm,Calm,-,N/A,,Scattered Clouds,0,2013-12-21 08:53:00
3:12 AM,3.2,1.4,92,29.84,1.8,Calm,Calm,-,N/A,,Mostly Cloudy,0,2013-12-21 09:12:00
3:33 AM,3.2,1.4,92,29.83,0.8,Calm,Calm,-,N/A,,Mist,0,2013-12-21 09:33:00
3:52 AM,1.4,-0.4,92,29.81,10.0,Calm,Calm,-,N/A,,Overcast,0,2013-12-21 09:52:00
4:12 AM,3.2,-0.4,85,29.80,10.0,Calm,Calm,-,N/A,,Overcast,0,2013-12-21 10:12:00
4:33 AM,5.0,1.4,85,29.81,10.0,Calm,Calm,-,N/A,,Unknown,0,2013-12-21 10:33:00
4:52 AM,8.6,6.8,92,29.80,10.0,Calm,Calm,-,N/A,,Unknown,0,2013-12-21 10:52:00
5:12 AM,8.6,6.8,92,29.83,10.0,Calm,Calm,-,N/A,,Overcast,0,2013-12-21 11:12:00
5:33 AM,10.4,6.8,85,29.80,4.0,Calm,Calm,-,N/A,,Overcast,0,2013-12-21 11:33:00
5:52 AM,8.6,6.8,92,29.81,1.8,Calm,Calm,-,N/A,,Overcast,0,2013-12-21 11:52:00
6:12 AM,10.4,6.8,85,29.83,2.0,Calm,Calm,-,N/A,,Overcast,0,2013-12-21 12:12:00
6:33 AM,10.4,8.6,92,29.83,5.0,Calm,Calm,-,N/A,,Overcast,0,2013-12-21 12:33:00
6:52 AM,10.4,8.6,92,29.83,10.0,Calm,Calm,-,N/A,,Overcast,0,2013-12-21 12:52:00
7:12 AM,10.4,8.6,92,29.84,10.0,Calm,Calm,-,N/A,,Overcast,0,2013-12-21 13:12:00
7:33 AM,10.4,8.6,92,29.85,10.0,Calm,Calm,-,N/A,,Overcast,0,2013-12-21 13:33:00
7:52 AM,10.4,8.6,92,29.86,10.0,Calm,Calm,-,N/A,,Overcast,0,2013-12-21 13:52:00
8:12 AM,10.4,8.6,92,29.86,10.0,Calm,Calm,-,N/A,,Overcast,0,2013-12-21 14:12:00
8:33 AM,12.2,10.4,92,29.86,10.0,Calm,Calm,-,N/A,,Overcast,0,2013-12-21 14:33:00
8:52 AM,12.2,10.4,92,29.86,10.0,Calm,Calm,-,N/A,,Overcast,0,2013-12-21 14:52:00
9:13 AM,12.2,10.4,92,29.88,10.0,Calm,Calm,-,N/A,,Overcast,0,2013-12-21 15:13:00
9:33 AM,12.2,10.4,92,29.86,7.0,ENE,3.5,-,N/A,,Overcast,60,2013-12-21 15:33:00
9:52 AM,14.0,12.2,93,29.86,7.0,ENE,3.5,-,N/A,,Overcast,70,2013-12-21 15:52:00
10:12 AM,14.0,12.2,93,29.89,7.0,Calm,Calm,-,N/A,,Overcast,0,2013-12-21 16:12:00
10:33 AM,14.0,12.2,93,29.90,7.0,Calm,Calm,-,N/A,,Overcast,0,2013-12-21 16:33:00
10:52 AM,14.0,12.2,93,29.90,7.0,ENE,3.5,-,N/A,,Overcast,60,2013-12-21 16:52:00
11:12 AM,14.0,12.2,93,29.87,7.0,North,4.6,-,N/A,Snow,Light Snow,360,2013-12-21 17:12:00
11:33 AM,15.8,12.2,86,29.86,7.0,NNE,4.6,-,N/A,,Overcast,20,2013-12-21 17:33:00
11:52 AM,15.8,12.2,86,29.88,10.0,North,3.5,-,N/A,,Overcast,10,2013-12-21 17:52:00
12:12 PM,15.8,12.2,86,29.88,10.0,North,3.5,-,N/A,,Overcast,360,2013-12-21 18:12:00
12:32 PM,15.8,14.0,93,29.89,10.0,North,4.6,-,N/A,,Overcast,360,2013-12-21 18:32:00
12:52 PM,15.8,14.0,93,29.87,10.0,North,5.8,-,N/A,,Overcast,360,2013-12-21 18:52:00
1:13 PM,15.8,15.8,100,29.89,10.0,North,4.6,-,N/A,,Overcast,360,2013-12-21 19:13:00
1:32 PM,15.8,15.8,100,29.88,10.0,North,5.8,-,N/A,,Overcast,360,2013-12-21 19:32:00
1:52 PM,15.8,15.8,100,29.89,10.0,North,6.9,-,N/A,,Overcast,360,2013-12-21 19:52:00
2:13 PM,17.6,15.8,93,29.86,10.0,North,10.4,-,N/A,,Overcast,360,2013-12-21 20:13:00
2:32 PM,17.6,15.8,93,29.85,10.0,North,12.7,-,N/A,,Overcast,360,2013-12-21 20:32:00
2:52 PM,17.6,15.8,93,29.87,10.0,North,11.5,-,N/A,,Overcast,360,2013-12-21 20:52:00
3:13 PM,17.6,15.8,93,29.89,10.0,North,11.5,-,N/A,,Overcast,360,2013-12-21 21:13:00
3:32 PM,17.6,14.0,86,29.89,10.0,North,13.8,-,N/A,,Overcast,360,2013-12-21 21:32:00
3:52 PM,15.8,14.0,93,29.89,10.0,North,15.0,-,N/A,,Overcast,350,2013-12-21 21:52:00
4:13 PM,15.8,14.0,93,29.90,10.0,North,16.1,-,N/A,,Overcast,350,2013-12-21 22:13:00
4:32 PM,15.8,14.0,93,29.90,10.0,North,16.1,-,N/A,,Overcast,360,2013-12-21 22:32:00
4:52 PM,15.8,14.0,93,29.90,10.0,North,15.0,-,N/A,,Overcast,360,2013-12-21 22:52:00
5:12 PM,15.8,14.0,93,29.89,10.0,North,16.1,-,N/A,,Overcast,360,2013-12-21 23:12:00
5:32 PM,15.8,14.0,93,29.91,10.0,North,17.3,-,N/A,,Overcast,350,2013-12-21 23:32:00
5:53 PM,15.8,12.2,86,29.91,10.0,North,17.3,-,N/A,,Overcast,350,2013-12-21 23:53:00
6:12 PM,15.8,12.2,86,29.93,10.0,North,12.7,-,N/A,,Overcast,350,2013-12-22 00:12:00
6:32 PM,15.8,12.2,86,29.93,10.0,North,15.0,-,N/A,,Overcast,350,2013-12-22 00:32:00
6:52 PM,15.8,12.2,86,29.91,10.0,North,18.4,-,N/A,,Overcast,360,2013-12-22 00:52:00
7:12 PM,15.8,12.2,86,29.92,10.0,North,16.1,-,N/A,,Overcast,350,2013-12-22 01:12:00
7:33 PM,15.8,12.2,86,29.92,10.0,North,20.7,-,N/A,,Overcast,360,2013-12-22 01:33:00
7:52 PM,15.8,12.2,86,29.91,7.0,North,20.7,-,N/A,,Overcast,350,2013-12-22 01:52:00
8:12 PM,14.0,12.2,93,29.90,10.0,North,19.6,-,N/A,,Overcast,350,2013-12-22 02:12:00
8:33 PM,14.0,10.4,86,29.90,10.0,North,20.7,26.5,N/A,,Overcast,350,2013-12-22 02:33:00
8:52 PM,12.2,10.4,92,29.90,10.0,North,23.0,-,N/A,,Overcast,350,2013-12-22 02:52:00
9:12 PM,12.2,10.4,92,29.90,4.0,NNW,17.3,-,N/A,Snow,Light Snow,340,2013-12-22 03:12:00
9:33 PM,10.4,8.6,92,29.91,3.0,NNW,19.6,-,N/A,Snow,Light Snow,340,2013-12-22 03:33:00
9:52 PM,10.4,8.6,92,29.92,3.0,NNW,20.7,-,N/A,Snow,Light Snow,330,2013-12-22 03:52:00
10:13 PM,10.4,6.8,85,29.92,4.0,NNW,18.4,-,N/A,Snow,Light Snow,330,2013-12-22 04:13:00
10:32 PM,8.6,6.8,92,29.92,4.0,NNW,18.4,-,N/A,Snow,Light Snow,340,2013-12-22 04:32:00
10:52 PM,8.6,6.8,92,29.92,3.0,NNW,20.7,-,N/A,Snow,Light Snow,330,2013-12-22 04:52:00
11:13 PM,8.6,5.0,85,29.91,2.5,NNW,17.3,-,N/A,Snow,Light Snow,340,2013-12-22 05:13:00
11:32 PM,6.8,5.0,92,29.91,2.5,NNW,17.3,-,N/A,Snow,Light Snow,330,2013-12-22 05:32:00
11:52 PM,6.8,3.2,85,29.92,2.5,NNW,20.7,-,N/A,Snow,Light Snow,330,2013-12-22 05:52:00